FW9069 Weather Reports


Display with metric or nautical units.
time (UTC)temp
F
wind
direction
speed
MPH
gust
MPH
rain 1hr
in
rain 24hr
in
rain mn
in
humidity
%
barometer
mb
20260506201849 65 225 1.0 9.0 0.00 0.00 0.00 75 1021.4
20260506200336 65 207 1.0 7.0 0.00 0.00 0.00 75 1021.4
20260506194843 64 198 1.0 7.0 0.00 0.00 0.00 79 1021.4
20260506193328 64 201 4.0 9.0 0.00 0.00 0.00 78 1021.4
20260506191858 64 120 5.0 11.0 0.00 0.00 0.00 80 1021.5
20260506190323 62 178 4.0 8.0 0.00 0.00 0.00 80 1021.5
20260506184832 61 147 2.0 9.0 0.00 0.00 0.00 83 1021.5
20260506183333 60 154 3.0 8.0 0.00 0.00 0.00 85 1021.6
20260506181821 59 202 4.0 8.0 0.00 0.00 0.00 85 1021.6
20260506180331 58 112 7.0 10.0 0.00 0.00 0.00 87 1021.5
20260506174833 57 115 7.0 10.0 0.00 0.00 0.00 88 1021.2
20260506173319 56 204 1.0 7.0 0.00 0.00 0.00 89 1021.4
20260506171826 55 197 3.0 7.0 0.00 0.00 0.00 90 1021.7
20260506170314 54 208 3.0 7.0 0.00 0.00 0.00 92 1021.2
20260506164829 54 219 2.0 7.0 0.00 0.00 0.00 92 1021.5
20260506163335 53 204 3.0 8.0 0.00 0.00 0.00 93 1021.5
20260506161835 53 194 3.0 7.0 0.00 0.00 0.00 94 1021.5
20260506160322 53 176 2.0 6.0 0.00 0.00 0.00 94 1021.1
20260506154849 52 167 2.0 4.0 0.00 0.00 0.00 94 1020.9
20260506153330 52 203 1.0 4.0 0.00 0.00 0.00 94 1021.3
20260506151836 52 186 3.0 6.0 0.00 0.00 0.00 94 1021.3
20260506150324 52 237 3.0 8.0 0.00 0.00 0.00 94 1021.4
20260506144827 52 218 6.0 14.0 0.00 0.00 0.00 93 1021.4
20260506143331 51 207 9.0 13.0 0.00 0.00 0.00 93 1020.8
20260506141834 51 169 5.0 9.0 0.00 0.00 0.00 94 1020.3
20260506140321 51 175 3.0 6.0 0.00 0.00 0.00 95 1020.2
20260506134824 51 177 2.0 6.0 0.00 0.00 0.00 94 1020.4
20260506133330 50 179 3.0 6.0 0.00 0.00 0.00 93 1020.4
20260506131832 50 208 1.0 4.0 0.00 0.00 0.00 91 1020.2
20260506130337 51 221 3.0 4.0 0.00 0.00 0.00 90 1020.2
20260506124821 52 235 1.0 2.0 0.00 0.00 0.00 90 1020.1
20260506123326 52 234 2.0 8.0 0.00 0.00 0.00 90 1020.1
20260506121813 52 209 3.0 5.0 0.00 0.00 0.00 90 1020.1
20260506120325 52 210 3.0 4.0 0.00 0.00 0.00 90 1019.9
20260506114829 52 250 2.0 6.0 0.00 0.00 0.00 91 1020.0
20260506113353 52 287 2.0 4.0 0.00 0.00 0.00 92 1019.5
20260506111818 52 196 2.0 5.0 0.00 0.00 0.00 93 1019.3
20260506110323 52 238 0.0 3.0 0.00 0.00 0.00 93 1019.3
20260506104825 52 228 3.0 5.0 0.00 0.00 0.00 94 1019.0
20260506103330 51 233 0.0 1.0 0.00 0.00 0.00 93 1018.8
20260506101855 51 233 0.0 0.0 0.00 0.00 0.00 91 1018.7
20260506100337 52 232 0.0 1.0 0.00 0.00 0.00 90 1018.6
20260506094822 52 233 0.0 1.0 0.00 0.00 0.00 90 1018.5
20260506093328 53 233 0.0 2.0 0.00 0.00 0.00 89 1018.4
20260506091828 54 232 1.0 2.0 0.00 0.00 0.00 89 1018.3
20260506090333 54 225 2.0 6.0 0.00 0.00 0.00 90 1018.1
20260506084819 54 224 7.0 11.0 0.00 0.00 0.00 89 1018.1
20260506083324 54 222 7.0 10.0 0.00 0.00 0.00 88 1018.0
20260506081826 54 231 3.0 9.0 0.00 0.00 0.00 88 1018.1
20260506080333 55 227 6.0 8.0 0.00 0.00 0.00 87 1018.1
20260506073319 57 237 1.0 2.0 0.00 0.00 0.00 86 1018.0
20260506071825 57 237 0.0 2.0 0.00 0.00 0.00 85 1018.0
20260506070331 57 228 0.0 2.0 0.00 0.00 0.00 86 1018.0
20260506061839 57 229 2.0 3.0 0.00 0.00 0.00 85 1017.9
20260506060328 57 229 3.0 5.0 0.00 0.00 0.00 85 1017.5
20260506050337 58 219 4.0 5.0 0.00 0.00 0.00 83 1017.2
20260506044823 59 235 4.0 7.0 0.00 0.00 0.00 82 1017.1
20260506043326 60 277 2.0 4.0 0.00 0.00 0.00 82 1017.0
20260506041834 60 16 1.0 2.0 0.00 0.00 0.00 80 1016.8
20260506040320 61 17 2.0 4.0 0.00 0.00 0.00 79 1016.5
20260506034827 61 22 1.0 3.0 0.00 0.00 0.00 79 1016.4
20260506033333 62 24 2.0 3.0 0.00 0.00 0.00 78 1016.3
20260506031841 62 24 3.0 3.0 0.00 0.00 0.00 78 1016.2
20260506030329 62 27 2.0 3.0 0.00 0.00 0.00 77 1015.9
20260506024835 63 29 2.0 6.0 0.00 0.00 0.00 77 1015.8
20260506023322 63 14 1.0 3.0 0.00 0.00 0.00 76 1015.8
20260506021830 63 344 2.0 4.0 0.00 0.00 0.00 75 1015.8
20260506020334 64 338 1.0 6.0 0.00 0.00 0.00 75 1015.9
20260506014823 64 3 2.0 4.0 0.00 0.00 0.00 75 1015.9
20260506013331 64 331 3.0 7.0 0.00 0.00 0.00 74 1015.8
20260506011835 64 348 2.0 7.0 0.00 0.00 0.00 73 1015.8
20260506010323 64 352 4.0 8.0 0.00 0.00 0.00 73 1015.7
20260506004827 64 22 3.0 7.0 0.00 0.00 0.00 73 1015.8
20260506003358 65 48 4.0 8.0 0.00 0.00 0.00 71 1015.8
20260506001822 65 3 2.0 7.0 0.00 0.00 0.00 72 1015.7
20260506000331 65 350 3.0 8.0 0.00 0.00 0.00 71 1015.8
20260505234817 65 357 2.0 7.0 0.00 0.00 0.00 74 1016.1
20260505233322 65 339 3.0 7.0 0.00 0.00 0.00 71 1016.2
20260505231822 65 23 3.0 8.0 0.00 0.00 0.00 73 1016.3
20260505230326 65 18 2.0 5.0 0.00 0.00 0.00 73 1016.3
20260505224830 65 347 3.0 8.0 0.00 0.00 0.00 75 1016.5
20260505223335 63 358 2.0 8.0 0.00 0.00 0.00 77 1016.6
20260505221838 63 352 3.0 6.0 0.00 0.00 0.00 78 1016.7
20260505220347 61 187 1.0 7.0 0.00 0.00 0.00 78 1016.7
20260505214828 61 346 1.0 4.0 0.00 0.00 0.00 79 1016.8
20260505213334 60 16 4.0 7.0 0.00 0.00 0.00 81 1016.9
20260505211818 60 339 0.0 5.0 0.00 0.00 0.00 80 1017.0
20260505210322 60 317 3.0 6.0 0.00 0.00 0.00 80 1017.0
20260505204828 60 328 2.0 7.0 0.00 0.00 0.00 81 1016.9
20260505203335 59 333 3.0 5.0 0.00 0.00 0.00 82 1017.2